Location: Grisols
(45.0093°N, 3.1167°E)
Time: 14:57:43
(UTC+00:00)

Cosmos 1076 Rocket - Pass Details

Date: 21 October 2019
Orbit: 589 x 613 km, 82.5° (Epoch: 17 November)

Event Time Altitude Azimuth Distance (km) Brightness Sun altitude
Rises 18:54:29 0° 347° (NNW) 2,886 7.3 -22.1°
Reaches altitude 10° 18:56:45 10° 342° (NNW) 1,974 6.4 -22.5°
Maximum altitude 19:01:01 54° 266° (W) 743 4.2 -23.3°
Drops below altitude 10° 19:05:13 10° 189° (S) 1,946 6.1 -24.0°
Enters shadow 19:07:25 - 185° (S) 2,835 6.9 -24.4°
